• In Uzbekistan
  • List of Countries
  • For 7 days
  • Water Temperature
  • Satellite Maps
  • Weather Map
  • Weather Widgets
  • user-avatar
    Login

    Hourly Weather Wiktoria

    Today, 28 May, Sunday

    Time Temperature Precipitation Wind Pressure Humidity
    00:00 +12°C° 0.6 mm 2 mps 746 mmHg 91%
    01:00 +10°C° 0.6 mm 2 mps 746 mmHg 95%
    02:00 +10°C° 0.8 mm 2 mps 745 mmHg 96%
    03:00 +10°C° 0.8 mm 2 mps 745 mmHg 96%
    04:00 +10°C° 0 mm 2 mps 745 mmHg 97%
    05:00 +10°C° 0.2 mm 2 mps 745 mmHg 97%
    06:00 +10°C° 0.2 mm 2 mps 745 mmHg 97%
    07:00 +10°C° 0.2 mm 2 mps 745 mmHg 97%
    08:00 +10°C° 0.2 mm 2 mps 745 mmHg 95%
    09:00 +10°C° 0.2 mm 2 mps 745 mmHg 93%
    10:00 +10°C° 0 mm 2 mps 745 mmHg 90%
    11:00 +12°C° 0.2 mm 2 mps 745 mmHg 86%
    12:00 +12°C° 0.2 mm 2 mps 745 mmHg 82%
    13:00 +12°C° 0.2 mm 2 mps 745 mmHg 78%
    14:00 +12°C° 0.4 mm 2 mps 745 mmHg 79%
    15:00 +12°C° 0.4 mm 2 mps 746 mmHg 81%
    16:00 +10°C° 0 mm 3 mps 746 mmHg 81%
    17:00 +9°C° 0.2 mm 2 mps 746 mmHg 84%
    18:00 +8°C° 0.2 mm 2 mps 747 mmHg 87%
    19:00 +8°C° 0.2 mm 1 mps 747 mmHg 91%
    20:00 +8°C° 0 mm 1 mps 748 mmHg 91%
    21:00 +7°C° 0 mm 1 mps 748 mmHg 91%
    22:00 +7°C° 0 mm 1 mps 748 mmHg 92%
    23:00 +6°C° 0 mm 1 mps 749 mmHg 92%

    Tomorrow, 29 May, Monday

    Time Temperature Precipitation Wind Pressure Humidity
    00:00 +6°C° 0 mm 1 mps 749 mmHg 93%
    01:00 +5°C° 0 mm 1 mps 750 mmHg 93%
    02:00 +5°C° 0 mm 1 mps 750 mmHg 94%
    03:00 +5°C° 0 mm 1 mps 751 mmHg 96%
    04:00 +4°C° 0 mm 1 mps 751 mmHg 97%
    05:00 +4°C° 0 mm 1 mps 751 mmHg 97%
    06:00 +4°C° 0 mm 1 mps 752 mmHg 98%
    07:00 +4°C° 0 mm 1 mps 753 mmHg 98%
    08:00 +5°C° 0 mm 1 mps 753 mmHg 93%
    09:00 +7°C° 0 mm 1 mps 754 mmHg 88%
    10:00 +9°C° 0 mm 1 mps 754 mmHg 82%
    11:00 +10°C° 0 mm 1 mps 754 mmHg 75%
    12:00 +12°C° 0 mm 1 mps 754 mmHg 67%
    13:00 +13°C° 0 mm 1 mps 754 mmHg 60%
    14:00 +13°C° 0 mm 1 mps 754 mmHg 60%
    15:00 +13°C° 0 mm 1 mps 754 mmHg 61%
    16:00 +13°C° 0 mm 1 mps 754 mmHg 62%
    17:00 +11°C° 0 mm 1 mps 754 mmHg 70%
    18:00 +9°C° 0 mm 1 mps 754 mmHg 78%
    19:00 +7°C° 0 mm 1 mps 755 mmHg 86%
    20:00 +7°C° 0 mm 1 mps 755 mmHg 88%
    21:00 +7°C° 0 mm 1 mps 755 mmHg 90%
    22:00 +6°C° 0 mm 1 mps 755 mmHg 92%
    23:00 +6°C° 0 mm 1 mps 755 mmHg 91%

    Day after tomorrow, 30 May, Tuesday

    Time Temperature Precipitation Wind Pressure Humidity
    00:00 +7°C° 0 mm 1 mps 755 mmHg 89%
    01:00 +7°C° 0 mm 1 mps 755 mmHg 88%
    02:00 +7°C° 0.3 mm 1 mps 755 mmHg 90%
    03:00 +7°C° 0.3 mm 1 mps 755 mmHg 91%
    04:00 +8°C° 0.3 mm 1 mps 755 mmHg 92%
    05:00 +8°C° 0.2 mm 1 mps 755 mmHg 93%
    06:00 +8°C° 0.2 mm 1 mps 755 mmHg 94%
    07:00 +8°C° 0.2 mm 1 mps 755 mmHg 95%
    08:00 +8°C° 0.2 mm 1 mps 755 mmHg 94%
    09:00 +9°C° 0.2 mm 1 mps 755 mmHg 93%
    10:00 +9°C° 0.2 mm 1 mps 756 mmHg 93%
    11:00 +10°C° 0.3 mm 1 mps 755 mmHg 93%
    12:00 +10°C° 0.3 mm 1 mps 755 mmHg 92%
    13:00 +11°C° 0.3 mm 1 mps 755 mmHg 92%
    14:00 +11°C° 0.1 mm 1 mps 755 mmHg 90%
    15:00 +11°C° 0.1 mm 1 mps 756 mmHg 88%
    16:00 +11°C° 0.1 mm 1 mps 756 mmHg 86%
    17:00 +10°C° 0 mm 1 mps 756 mmHg 89%
    18:00 +8°C° 0 mm 1 mps 757 mmHg 92%
    19:00 +7°C° 0 mm 1 mps 758 mmHg 95%
    20:00 +6°C° 0 mm 1 mps 758 mmHg 95%
    21:00 +6°C° 0 mm 1 mps 758 mmHg 95%
    22:00 +5°C° 0 mm 1 mps 759 mmHg 95%
    23:00 +5°C° 0 mm 1 mps 759 mmHg 95%

    31 May, Wednesday

    Time Temperature Precipitation Wind Pressure Humidity
    00:00 +4°C° 0 mm 1 mps 759 mmHg 95%
    01:00 +4°C° 0 mm 1 mps 759 mmHg 96%
    02:00 +4°C° 0 mm 1 mps 759 mmHg 96%
    03:00 +4°C° 0 mm 1 mps 759 mmHg 96%
    04:00 +4°C° 0 mm 1 mps 760 mmHg 96%
    05:00 +4°C° 0 mm 1 mps 760 mmHg 96%
    06:00 +3°C° 0 mm 1 mps 760 mmHg 97%
    07:00 +3°C° 0 mm 1 mps 761 mmHg 97%
    08:00 +5°C° 0 mm 1 mps 761 mmHg 92%
    09:00 +7°C° 0 mm 1 mps 762 mmHg 87%
    10:00 +8°C° 0 mm 1 mps 762 mmHg 82%
    11:00 +9°C° 0 mm 2 mps 762 mmHg 73%
    12:00 +10°C° 0 mm 2 mps 761 mmHg 65%
    13:00 +13°C° 0 mm 2 mps 761 mmHg 56%
    14:00 +12°C° 0 mm 2 mps 761 mmHg 58%
    15:00 +12°C° 0 mm 2 mps 761 mmHg 59%
    16:00 +12°C° 0 mm 1 mps 761 mmHg 61%
    17:00 +10°C° 0 mm 1 mps 762 mmHg 69%
    18:00 +9°C° 0 mm 1 mps 762 mmHg 76%
    19:00 +7°C° 0 mm 1 mps 763 mmHg 84%
    20:00 +7°C° 0 mm 1 mps 763 mmHg 87%
    21:00 +6°C° 0 mm 1 mps 763 mmHg 89%
    22:00 +5°C° 0 mm 1 mps 764 mmHg 92%
    23:00 +5°C° 0 mm 1 mps 764 mmHg 93%

    1 June, Thursday

    Time Temperature Precipitation Wind Pressure Humidity
    00:00 +5°C° 0 mm 1 mps 764 mmHg 94%
    01:00 +5°C° 0 mm 1 mps 764 mmHg 95%
    02:00 +5°C° 0 mm 1 mps 764 mmHg 96%
    03:00 +5°C° 0 mm 1 mps 764 mmHg 97%
    04:00 +4°C° 0 mm 1 mps 764 mmHg 98%
    05:00 +4°C° 0 mm 1 mps 764 mmHg 98%
    06:00 +4°C° 0 mm 1 mps 764 mmHg 98%
    07:00 +4°C° 0 mm 1 mps 765 mmHg 99%
    08:00 +6°C° 0 mm 1 mps 765 mmHg 90%
    09:00 +8°C° 0 mm 1 mps 765 mmHg 82%
    10:00 +10°C° 0 mm 1 mps 765 mmHg 74%
    11:00 +11°C° 0 mm 1 mps 765 mmHg 67%
    12:00 +12°C° 0 mm 1 mps 764 mmHg 61%
    13:00 +14°C° 0 mm 1 mps 764 mmHg 54%
    14:00 +14°C° 0 mm 1 mps 763 mmHg 57%
    15:00 +13°C° 0 mm 1 mps 763 mmHg 59%
    16:00 +13°C° 0 mm 1 mps 763 mmHg 62%
    17:00 +11°C° 0 mm 1 mps 763 mmHg 71%
    18:00 +9°C° 0 mm 1 mps 764 mmHg 81%
    19:00 +7°C° 0 mm 1 mps 764 mmHg 90%
    20:00 +6°C° 0 mm 1 mps 764 mmHg 92%
    21:00 +6°C° 0 mm 1 mps 764 mmHg 95%
    22:00 +5°C° 0 mm 1 mps 764 mmHg 97%
    23:00 +5°C° 0 mm 1 mps 764 mmHg 97%

    2 June, Friday

    Time Temperature Precipitation Wind Pressure Humidity
    00:00 +5°C° 0 mm 1 mps 764 mmHg 97%
    01:00 +4°C° 0 mm 1 mps 764 mmHg 98%
    02:00 +4°C° 0 mm 1 mps 764 mmHg 98%
    03:00 +3°C° 0 mm 1 mps 764 mmHg 98%
    04:00 +3°C° 0 mm 1 mps 764 mmHg 99%
    05:00 +3°C° 0 mm 1 mps 764 mmHg 99%
    06:00 +2°C° 0 mm 1 mps 764 mmHg 99%
    07:00 +2°C° 0 mm 1 mps 764 mmHg 99%
    08:00 +3°C° 0 mm 0 mps 765 mmHg 88%
    09:00 +6°C° 0 mm 0 mps 765 mmHg 78%
    10:00 +8°C° 0 mm 0 mps 765 mmHg 67%
    11:00 +10°C° 0 mm 0 mps 764 mmHg 59%
    12:00 +13°C° 0 mm 1 mps 764 mmHg 52%
    13:00 +14°C° 0 mm 1 mps 763 mmHg 44%
    14:00 +14°C° 0 mm 1 mps 763 mmHg 48%
    15:00 +13°C° 0 mm 0 mps 763 mmHg 52%
    16:00 +12°C° 0 mm 0 mps 762 mmHg 55%
    17:00 +11°C° 0 mm 1 mps 763 mmHg 62%
    18:00 +9°C° 0 mm 1 mps 763 mmHg 69%
    19:00 +6°C° 0 mm 1 mps 763 mmHg 77%
    20:00 +6°C° 0 mm 1 mps 763 mmHg 79%
    21:00 +6°C° 0 mm 1 mps 764 mmHg 81%
    22:00 +5°C° 0 mm 1 mps 764 mmHg 83%
    23:00 +5°C° 0 mm 1 mps 763 mmHg 85%
    Show more